Weather History for Port Weller, ON

Change the Weather History Date:

Saturday, November 16, 2013

  Actual Average Record
Temperature  
Mean Temperature 49 °F -  
Max Temperature 56 °F - - ()
Min Temperature 42 °F - - ()
Degree Days  
Heating Degree Days 16    
Moisture  
Dew Point 39 °F    
Average Humidity 61    
Maximum Humidity 76    
Minimum Humidity 46    
Precipitation  
Precipitation 0.00 in - - ()
Sea Level Pressure  
Sea Level Pressure 30.11 in    
Wind  
Wind Speed 5 mph ()    
Max Wind Speed 13 mph    
Max Gust Speed -    
T = Trace of Precipitation, MM = Missing Value Source: Averaged Metar Reports

Daily Weather History Graph

Daily Weather History Graph

Search for Another Location

Airport:

Trip Planner

Search our weather history database for the weather conditions in past years. The results will help you decide how hot, cold, wet, or windy it might be!

Date:

Astronomy

Nov. 16, 2013 Rise Set
Actual Time 7:11 AM EST 4:51 PM EST
Civil Twilight 6:40 AM EST 5:22 PM EST
Nautical Twilight 6:06 AM EST 5:56 PM EST
Astronomical Twilight 5:32 AM EST 6:30 PM EST
Moon 4:26 PM EST (11/16) 6:04 AM EST (11/16)
Length of Visible Light 10h 41m
Length of Day
9h 40m
Waxing Gibbous, 99% of the Moon is Illuminated
Nov 16
Waxing Gibbous
Nov 17
Full
Nov 25
Last Quarter
Dec 2
New
Dec 9
First Quarter

Hourly Weather History & Observations

Time (EST) Temp. Dew Point Humidity Pressure Visibility Wind Dir Wind Speed Gust Speed Precip Events Conditions
12:00 AM 43.5 °F 36.3 °F 76% 30.10 in - North - - N/A   Unknown
1:00 AM 46 °F 36 °F 58% 30.11 in - 5.8 mph - -  
1:00 AM 46.2 °F 36.0 °F 67% 30.11 in - North - - N/A   Unknown
2:00 AM 46.0 °F 36.1 °F 68% 30.13 in - North - - N/A   Unknown
3:00 AM 46.4 °F 35.8 °F 67% 30.14 in - North - - N/A   Unknown
4:00 AM 48 °F 36 °F 52% 30.14 in - North 4.6 mph - -  
4:00 AM 47.8 °F 35.8 °F 63% 30.14 in - North - - N/A   Unknown
5:00 AM 47.1 °F 37.0 °F 68% 30.14 in - North - - N/A   Unknown
6:00 AM 46.2 °F 36.1 °F 68% 30.14 in - North - - N/A   Unknown
7:00 AM 45 °F 36 °F 62% 30.17 in - 4.6 mph - -  
7:00 AM 45.3 °F 36.1 °F 70% 30.17 in - North - - N/A   Unknown
8:00 AM 46.4 °F 36.9 °F 69% 30.20 in - North - - N/A   Unknown
9:00 AM 48.4 °F 37.8 °F 67% 30.21 in - North - - N/A   Unknown
10:00 AM 51 °F 38 °F 51% 30.21 in - WSW 2.3 mph - -  
10:00 AM 50.9 °F 38.3 °F 62% 30.21 in - North - - N/A   Unknown
11:00 AM 54.7 °F 38.8 °F 55% 30.20 in - North - - N/A   Unknown
12:00 PM 54.9 °F 39.9 °F 57% 30.17 in - North - - N/A   Unknown
1:00 PM 55 °F 41 °F 48% 30.15 in - 9.2 mph - -  
1:00 PM 55.2 °F 40.8 °F 58% 30.15 in - North - - N/A   Unknown
2:00 PM 54.9 °F 40.6 °F 59% 30.13 in - North - - N/A   Unknown
3:00 PM 55.4 °F 40.8 °F 58% 30.11 in - North - - N/A   Unknown
4:00 PM 55 °F 40 °F 46% 30.09 in - East 6.9 mph - -  
4:00 PM 54.9 °F 40.3 °F 58% 30.09 in - North - - N/A   Unknown
5:00 PM 53.6 °F 40.1 °F 60% 30.07 in - North - - N/A   Unknown
6:00 PM 51.8 °F 39.9 °F 64% 30.06 in - North - - N/A   Unknown
7:00 PM 51 °F 40 °F 57% 30.04 in - 5.8 mph - -  
7:00 PM 50.7 °F 40.3 °F 67% 30.04 in - North - - N/A   Unknown
8:00 PM 49.5 °F 39.6 °F 69% 30.03 in - North - - N/A   Unknown
9:00 PM 53.1 °F 40.3 °F 62% 30.01 in - North - - N/A   Unknown
10:00 PM 54 °F 40 °F 49% 29.99 in - NE 12.7 mph - -  
10:00 PM 53.8 °F 40.5 °F 61% 29.99 in - North - - N/A   Unknown
11:00 PM 53.8 °F 41.5 °F 63% 29.96 in - North - - N/A   Unknown